User: anonymous   Login
Location: Warszawa
(52.2322°N, 21.0083°E)
Time: 07:24:57
(UTC+02:00)
Language:

ISS - Orbit

View from above orbital plane
View from above orbital plane
View from above satellite
View from above satellite

Ground track
Ground track

The orbit data is extracted from the following two-line orbital elements,

1 25544U 98067A   19287.03551318  .00000741  00000-0  20900-4 0  9990
2 25544  51.6426 131.9332 0007279 145.7169  13.0831 15.50197389193698
Epoch (UTC): 14 October 2019 00:51:08
Eccentricity: 0.0007279
inclination: 51.6426°
perigee height: 411 km
apogee height: 421 km
right ascension of ascending node: 131.9332°
argument of perigee: 145.7169°
revolutions per day: 15.50197389
mean anomaly at epoch: 13.0831°
orbit number at epoch: 19369

The dashed part of the orbit path shows where the satellite is in the earth's shadow,  

DLR